EWG6GT EDDL-LOWG

Flight info

Callsign EWG6GT
Flight time 1h 10m
Altitude 33000
Route DODEN7Z DODEN Y853 BOMBI DCT ESATI DCT BARSU DCT MOOCE DCT RUDNO DCT LAMSI DCT LEOBE LEOBE2M
Aircraft A320/M-SDE3FGHIRWY/LB1

Departure

Time 2026-05-07 13:30
Airport Düsseldorf Airport (EDDL)

Arrival

Time 2026-05-07 14:40
Airport Graz Airport (LOWG)
Time Latitude Longitude Altitude Speed Heading
2026-05-07 12:43 51.28037 6.76366 126 ft 0 kts 197°
2026-05-07 13:15 51.28049 6.76371 124 ft 4 kts 196°
2026-05-07 13:15 51.28075 6.76382 123 ft 4 kts 191°
2026-05-07 13:15 51.28101 6.76388 125 ft 4 kts 176°
2026-05-07 13:16 51.28123 6.76377 126 ft 4 kts 123°
2026-05-07 13:16 51.28135 6.76344 122 ft 4 kts 120°
2026-05-07 13:16 51.28148 6.76306 123 ft 4 kts 107°
2026-05-07 13:16 51.28149 6.76272 124 ft 3 kts 71°
2026-05-07 13:17 51.28138 6.76232 125 ft 4 kts 58°
2026-05-07 13:17 51.28123 6.76197 123 ft 4 kts 53°
2026-05-07 13:17 51.28120 6.76191 123 ft 1 kts 53°
2026-05-07 13:25 51.28126 6.76203 124 ft 4 kts 53°
2026-05-07 13:25 51.28142 6.76237 124 ft 4 kts 49°
2026-05-07 13:25 51.28168 6.76255 126 ft 6 kts
2026-05-07 13:25 51.28197 6.76187 129 ft 12 kts 249°
2026-05-07 13:26 51.28141 6.76045 127 ft 15 kts 232°
2026-05-07 13:26 51.28076 6.75907 127 ft 18 kts 233°
2026-05-07 13:26 51.27981 6.75707 126 ft 24 kts 232°
2026-05-07 13:26 51.27879 6.75495 126 ft 22 kts 233°
2026-05-07 13:27 51.27852 6.75347 122 ft 13 kts 304°
2026-05-07 13:27 51.27887 6.75313 125 ft 0 kts 334°
2026-05-07 13:28 51.27902 6.75301 125 ft 7 kts 334°
2026-05-07 13:28 51.27954 6.75266 122 ft 8 kts 349°
2026-05-07 13:29 51.28006 6.75299 122 ft 10 kts 44°
2026-05-07 13:29 51.28173 6.75644 123 ft 76 kts 53°
2026-05-07 13:29 51.28627 6.76595 127 ft 137 kts 52°
2026-05-07 13:29 51.29280 6.77979 315 ft 168 kts 51°
2026-05-07 13:30 51.29953 6.79491 1111 ft 167 kts 53°
2026-05-07 13:30 51.30631 6.81002 1832 ft 167 kts 51°
2026-05-07 13:30 51.31372 6.82545 2320 ft 185 kts 50°
2026-05-07 13:30 51.32220 6.84284 2686 ft 210 kts 50°
2026-05-07 13:31 51.33170 6.86235 3141 ft 235 kts 51°
2026-05-07 13:31 51.34193 6.88421 3716 ft 253 kts 53°
2026-05-07 13:31 51.35107 6.90866 4565 ft 263 kts 70°
2026-05-07 13:31 51.35243 6.93752 5202 ft 270 kts 98°
2026-05-07 13:32 51.34917 6.96754 6159 ft 272 kts 98°
2026-05-07 13:32 51.34602 6.99714 6994 ft 275 kts 98°
2026-05-07 13:32 51.34285 7.02763 7854 ft 279 kts 99°
2026-05-07 13:32 51.33969 7.05850 8723 ft 283 kts 99°
2026-05-07 13:33 51.33652 7.08977 9602 ft 287 kts 99°
2026-05-07 13:33 51.33329 7.12168 10335 ft 296 kts 99°
2026-05-07 13:33 51.32788 7.15478 10616 ft 320 kts 111°
2026-05-07 13:33 51.31757 7.18727 11052 ft 335 kts 123°
2026-05-07 13:34 51.30272 7.21638 11730 ft 342 kts 135°
2026-05-07 13:34 51.26844 7.27060 13224 ft 352 kts 135°
2026-05-07 13:34 51.25092 7.29832 13937 ft 356 kts 135°
2026-05-07 13:35 51.23322 7.32630 14609 ft 360 kts 136°
2026-05-07 13:35 51.21539 7.35444 15262 ft 364 kts 136°
2026-05-07 13:35 51.19817 7.38427 15913 ft 369 kts 126°
2026-05-07 13:35 51.18412 7.41859 16642 ft 370 kts 124°
2026-05-07 13:36 51.17018 7.45335 17324 ft 373 kts 123°
2026-05-07 13:36 51.15622 7.48819 18020 ft 375 kts 123°
2026-05-07 13:36 51.14209 7.52336 18613 ft 379 kts 124°
2026-05-07 13:36 51.12785 7.55870 19180 ft 382 kts 124°
2026-05-07 13:37 51.11344 7.59440 19731 ft 385 kts 124°
2026-05-07 13:37 51.09887 7.63041 20313 ft 388 kts 123°
2026-05-07 13:37 51.08420 7.66666 20914 ft 391 kts 123°
2026-05-07 13:37 51.06945 7.70308 21474 ft 394 kts 123°
2026-05-07 13:38 51.05959 7.72742 21826 ft 396 kts 123°
2026-05-07 13:38 51.04459 7.76437 22350 ft 401 kts 124°
2026-05-07 13:38 51.02937 7.80174 22894 ft 404 kts 123°
2026-05-07 13:38 51.01385 7.83986 23452 ft 407 kts 123°
2026-05-07 13:39 50.99864 7.87716 23941 ft 409 kts 123°
2026-05-07 13:39 50.98312 7.91512 24368 ft 412 kts 123°
2026-05-07 13:39 50.96747 7.95341 24804 ft 415 kts 124°
2026-05-07 13:39 50.95168 7.99195 25183 ft 418 kts 123°
2026-05-07 13:40 50.93582 8.03060 25631 ft 420 kts 123°
2026-05-07 13:40 50.91983 8.06953 26080 ft 421 kts 123°
2026-05-07 13:40 50.90378 8.10847 26477 ft 423 kts 123°
2026-05-07 13:40 50.88762 8.14760 26860 ft 425 kts 123°
2026-05-07 13:41 50.87137 8.18690 27224 ft 428 kts 124°
2026-05-07 13:41 50.85504 8.22635 27612 ft 430 kts 123°
2026-05-07 13:41 50.83857 8.26615 27994 ft 432 kts 123°
2026-05-07 13:41 50.82208 8.30597 28407 ft 434 kts 124°
2026-05-07 13:42 50.80543 8.34611 28728 ft 437 kts 123°
2026-05-07 13:42 50.78872 8.38625 29065 ft 440 kts 124°
2026-05-07 13:42 50.77190 8.42654 29411 ft 442 kts 124°
2026-05-07 13:42 50.75500 8.46694 29789 ft 443 kts 123°
2026-05-07 13:43 50.73802 8.50739 30158 ft 443 kts 124°
2026-05-07 13:43 50.72089 8.54819 30410 ft 446 kts 123°
2026-05-07 13:43 50.70370 8.58912 30656 ft 448 kts 124°
2026-05-07 13:43 50.68650 8.63012 30891 ft 451 kts 124°
2026-05-07 13:44 50.66914 8.67148 31115 ft 452 kts 123°
2026-05-07 13:44 50.65178 8.71275 31372 ft 453 kts 124°
2026-05-07 13:44 50.63423 8.75435 31624 ft 455 kts 124°
2026-05-07 13:44 50.61678 8.79565 31928 ft 455 kts 124°
2026-05-07 13:45 50.59922 8.83717 32227 ft 455 kts 124°
2026-05-07 13:45 50.58164 8.87866 32544 ft 455 kts 124°
2026-05-07 13:45 50.56419 8.91978 32866 ft 454 kts 124°
2026-05-07 13:45 50.54656 8.96120 33026 ft 452 kts 124°
2026-05-07 13:46 50.52926 9.00181 33042 ft 442 kts 124°
2026-05-07 13:46 50.49552 9.08087 33043 ft 438 kts 124°
2026-05-07 13:47 50.46155 9.16018 33043 ft 437 kts 124°
2026-05-07 13:47 50.42756 9.23930 33044 ft 438 kts 124°
2026-05-07 13:48 50.39348 9.31831 33039 ft 438 kts 124°
2026-05-07 13:48 50.35930 9.39730 33041 ft 438 kts 124°
2026-05-07 13:49 50.32512 9.47622 33034 ft 438 kts 124°
2026-05-07 13:49 50.29086 9.55500 33039 ft 437 kts 124°
2026-05-07 13:50 50.25650 9.63358 33033 ft 437 kts 125°
2026-05-07 13:50 50.22212 9.71195 33030 ft 437 kts 125°
2026-05-07 13:51 50.18778 9.79043 33033 ft 437 kts 124°
2026-05-07 13:51 50.15346 9.86871 33028 ft 438 kts 125°
2026-05-07 13:52 50.11900 9.94682 33033 ft 438 kts 125°
2026-05-07 13:52 50.08436 10.02497 33037 ft 437 kts 125°
2026-05-07 13:53 50.04980 10.10270 33030 ft 438 kts 125°
2026-05-07 13:53 50.01519 10.18058 33037 ft 437 kts 125°
2026-05-07 13:54 49.98046 10.25836 33034 ft 438 kts 125°
2026-05-07 13:54 49.94569 10.33596 33028 ft 438 kts 125°
2026-05-07 13:55 49.91371 10.41599 33033 ft 438 kts 115°
2026-05-07 13:55 49.88811 10.50189 33026 ft 438 kts 115°
2026-05-07 13:56 49.86224 10.58743 33023 ft 439 kts 115°
2026-05-07 13:56 49.83618 10.67303 33019 ft 439 kts 115°
2026-05-07 13:57 49.81011 10.75864 33024 ft 439 kts 115°
2026-05-07 13:57 49.78431 10.84354 33023 ft 439 kts 115°
2026-05-07 13:58 49.75824 10.92900 33032 ft 439 kts 115°
2026-05-07 13:58 49.73201 11.01420 33027 ft 439 kts 115°
2026-05-07 13:59 49.70568 11.09943 33037 ft 439 kts 116°
2026-05-07 13:59 49.67937 11.18459 33034 ft 440 kts 116°
2026-05-07 14:00 49.65298 11.26987 33017 ft 439 kts 116°
2026-05-07 14:00 49.62661 11.35467 33004 ft 439 kts 116°
2026-05-07 14:01 49.60002 11.43968 33009 ft 440 kts 117°
2026-05-07 14:01 49.57342 11.52447 33009 ft 440 kts 116°
2026-05-07 14:02 49.55149 11.61267 33009 ft 441 kts 110°
2026-05-07 14:02 49.53130 11.70161 33004 ft 441 kts 110°
2026-05-07 14:03 49.51094 11.79062 32998 ft 440 kts 111°
2026-05-07 14:03 49.49055 11.87954 32999 ft 441 kts 111°
2026-05-07 14:04 49.47018 11.96783 33001 ft 441 kts 111°
2026-05-07 14:04 49.44964 12.05635 32998 ft 441 kts 111°
2026-05-07 14:05 49.42908 12.14502 32997 ft 441 kts 111°
2026-05-07 14:05 49.40842 12.23369 32999 ft 441 kts 111°
2026-05-07 14:06 49.38751 12.32252 33000 ft 441 kts 111°
2026-05-07 14:06 49.36666 12.41089 32996 ft 441 kts 111°
2026-05-07 14:07 49.34539 12.49925 32994 ft 440 kts 116°
2026-05-07 14:07 49.31257 12.57716 32983 ft 434 kts 135°
2026-05-07 14:08 49.27024 12.64287 32978 ft 434 kts 138°
2026-05-07 14:08 49.22788 12.70877 33007 ft 434 kts 137°
2026-05-07 14:09 49.18545 12.77469 33004 ft 435 kts 138°
2026-05-07 14:09 49.14287 12.84041 33000 ft 435 kts 138°
2026-05-07 14:10 49.10022 12.90600 32992 ft 435 kts 138°
2026-05-07 14:10 49.05785 12.97109 32995 ft 435 kts 138°
2026-05-07 14:11 49.01516 13.03648 32997 ft 435 kts 138°
2026-05-07 14:11 48.97247 13.10158 32977 ft 435 kts 138°
2026-05-07 14:12 48.92971 13.16666 32979 ft 435 kts 138°
2026-05-07 14:12 48.88693 13.23157 32992 ft 435 kts 138°
2026-05-07 14:13 48.84411 13.29649 32995 ft 434 kts 139°
2026-05-07 14:13 48.80136 13.36108 33005 ft 433 kts 139°
2026-05-07 14:14 48.75858 13.42547 33001 ft 433 kts 139°
2026-05-07 14:14 48.71590 13.48960 32994 ft 432 kts 139°
2026-05-07 14:15 48.67318 13.55362 32990 ft 432 kts 139°
2026-05-07 14:15 48.62810 13.61271 32990 ft 427 kts 147°
2026-05-07 14:15 48.60444 13.63998 32875 ft 427 kts 147°
2026-05-07 14:16 48.58088 13.66708 32602 ft 423 kts 147°
2026-05-07 14:16 48.55755 13.69389 32340 ft 420 kts 147°
2026-05-07 14:16 48.53438 13.72050 32073 ft 418 kts 147°
2026-05-07 14:16 48.51127 13.74702 31825 ft 415 kts 147°
2026-05-07 14:17 48.48836 13.77333 31571 ft 413 kts 147°
2026-05-07 14:17 48.46561 13.79944 31299 ft 410 kts 147°
2026-05-07 14:17 48.44296 13.82545 31044 ft 407 kts 147°
2026-05-07 14:17 48.42044 13.85126 30800 ft 405 kts 148°
2026-05-07 14:18 48.41139 13.86159 30700 ft 404 kts 148°
2026-05-07 14:18 48.39165 13.88408 30484 ft 401 kts 148°
2026-05-07 14:18 48.36948 13.90929 30215 ft 396 kts 148°
2026-05-07 14:19 48.34744 13.93437 29958 ft 389 kts 148°
2026-05-07 14:19 48.32627 13.95845 29671 ft 386 kts 148°
2026-05-07 14:19 48.30491 13.98271 29386 ft 384 kts 148°
2026-05-07 14:19 48.28367 14.00679 29099 ft 383 kts 148°
2026-05-07 14:20 48.26238 14.03092 28809 ft 382 kts 148°
2026-05-07 14:20 48.24122 14.05482 28530 ft 381 kts 148°
2026-05-07 14:20 48.22005 14.07873 28245 ft 380 kts 148°
2026-05-07 14:20 48.19899 14.10253 27970 ft 380 kts 147°
2026-05-07 14:21 48.17788 14.12635 27705 ft 379 kts 147°
2026-05-07 14:21 48.15673 14.15023 27436 ft 378 kts 147°
2026-05-07 14:21 48.13585 14.17380 27170 ft 377 kts 147°
2026-05-07 14:21 48.11484 14.19744 26905 ft 376 kts 147°
2026-05-07 14:22 48.09400 14.22086 26628 ft 374 kts 148°
2026-05-07 14:22 48.07317 14.24425 26368 ft 373 kts 148°
2026-05-07 14:22 48.05253 14.26743 26109 ft 371 kts 148°
2026-05-07 14:22 48.03193 14.29050 25856 ft 370 kts 148°
2026-05-07 14:23 48.01130 14.31360 25601 ft 369 kts 148°
2026-05-07 14:23 47.99081 14.33651 25349 ft 368 kts 148°
2026-05-07 14:23 47.97028 14.35945 25103 ft 367 kts 148°
2026-05-07 14:23 47.94986 14.38226 24856 ft 366 kts 147°
2026-05-07 14:24 47.92963 14.40483 24549 ft 361 kts 147°
2026-05-07 14:24 47.90955 14.42722 24116 ft 358 kts 147°
2026-05-07 14:24 47.88970 14.44932 23662 ft 356 kts 147°
2026-05-07 14:24 47.86984 14.47141 23156 ft 355 kts 147°
2026-05-07 14:25 47.85019 14.49327 22712 ft 352 kts 147°
2026-05-07 14:25 47.83088 14.51473 22259 ft 349 kts 147°
2026-05-07 14:25 47.81124 14.53645 21810 ft 346 kts 147°
2026-05-07 14:25 47.79221 14.55747 21377 ft 344 kts 147°
2026-05-07 14:26 47.77284 14.57888 20934 ft 342 kts 147°
2026-05-07 14:26 47.76027 14.59280 20649 ft 341 kts 147°
2026-05-07 14:26 47.73503 14.62069 20067 ft 341 kts 147°
2026-05-07 14:26 47.72218 14.63487 19775 ft 341 kts 147°
2026-05-07 14:27 47.69690 14.66275 19193 ft 341 kts 146°
2026-05-07 14:27 47.67790 14.68368 18769 ft 340 kts 146°
2026-05-07 14:27 47.65889 14.70464 18340 ft 340 kts 146°
2026-05-07 14:27 47.63992 14.72553 17872 ft 338 kts 146°
2026-05-07 14:28 47.62113 14.74616 17437 ft 335 kts 146°
2026-05-07 14:28 47.60867 14.75981 17142 ft 334 kts 146°
2026-05-07 14:28 47.59007 14.78020 16746 ft 333 kts 146°
2026-05-07 14:28 47.57129 14.80075 16321 ft 331 kts 147°
2026-05-07 14:29 47.55306 14.82068 15934 ft 329 kts 146°
2026-05-07 14:29 47.53476 14.84075 15539 ft 327 kts 146°
2026-05-07 14:29 47.51653 14.86072 15129 ft 325 kts 146°
2026-05-07 14:29 47.49838 14.88056 14716 ft 324 kts 147°
2026-05-07 14:30 47.48037 14.90019 14317 ft 322 kts 147°
2026-05-07 14:30 47.46234 14.91981 13925 ft 320 kts 146°
2026-05-07 14:30 47.44444 14.93927 13498 ft 319 kts 147°
2026-05-07 14:30 47.42671 14.95855 13097 ft 316 kts 147°
2026-05-07 14:31 47.40907 14.97772 12686 ft 314 kts 147°
2026-05-07 14:31 47.39150 14.99678 12310 ft 311 kts 147°
2026-05-07 14:31 47.37520 15.01739 11934 ft 311 kts 134°
2026-05-07 14:31 47.36307 15.04401 11499 ft 315 kts 118°
2026-05-07 14:32 47.35628 15.07490 11060 ft 318 kts 104°
2026-05-07 14:32 47.35150 15.10674 10593 ft 319 kts 104°
2026-05-07 14:32 47.34664 15.13862 10139 ft 319 kts 104°
2026-05-07 14:32 47.34180 15.17015 10001 ft 308 kts 104°
2026-05-07 14:33 47.33711 15.20069 9571 ft 307 kts 104°
2026-05-07 14:33 47.33224 15.23213 8718 ft 320 kts 104°
2026-05-07 14:33 47.32721 15.26445 7953 ft 327 kts 105°
2026-05-07 14:33 47.32219 15.29669 7646 ft 317 kts 104°
2026-05-07 14:34 47.31515 15.32649 7575 ft 299 kts 123°
2026-05-07 14:34 47.30161 15.34805 7466 ft 280 kts 148°
2026-05-07 14:34 47.28402 15.35893 7097 ft 273 kts 170°
2026-05-07 14:34 47.26558 15.36397 6714 ft 268 kts 171°
2026-05-07 14:35 47.24724 15.36888 6343 ft 267 kts 170°
2026-05-07 14:35 47.22913 15.37381 5955 ft 263 kts 170°
2026-05-07 14:35 47.21120 15.37876 5585 ft 260 kts 170°
2026-05-07 14:35 47.19352 15.38368 5233 ft 257 kts 169°
2026-05-07 14:36 47.17614 15.38851 4874 ft 250 kts 168°
2026-05-07 14:36 47.15935 15.39314 4559 ft 243 kts 168°
2026-05-07 14:36 47.14273 15.39773 4210 ft 241 kts 168°
2026-05-07 14:36 47.12635 15.40228 3899 ft 240 kts 167°
2026-05-07 14:37 47.11022 15.40675 3560 ft 228 kts 168°
2026-05-07 14:37 47.08136 15.41466 2964 ft 192 kts 168°
2026-05-07 14:37 47.06902 15.41804 2664 ft 174 kts 167°
2026-05-07 14:38 47.05762 15.42119 2396 ft 158 kts 167°
2026-05-07 14:38 47.04729 15.42406 2180 ft 146 kts 166°
2026-05-07 14:38 47.03752 15.42677 1931 ft 140 kts 166°
2026-05-07 14:38 47.02829 15.42933 1661 ft 134 kts 167°
2026-05-07 14:39 47.01914 15.43191 1512 ft 133 kts 166°
2026-05-07 14:39 47.01009 15.43448 1319 ft 132 kts 166°
2026-05-07 14:39 47.00106 15.43685 1153 ft 130 kts 167°
2026-05-07 14:39 46.99290 15.43909 1106 ft 105 kts 168°
2026-05-07 14:40 46.98839 15.44040 1104 ft 23 kts 169°
2026-05-07 14:40 46.98700 15.44075 1104 ft 21 kts 169°
2026-05-07 14:40 46.98548 15.44119 1101 ft 24 kts 168°
2026-05-07 14:40 46.98384 15.44165 1100 ft 24 kts 170°
2026-05-07 14:41 46.98210 15.44212 1095 ft 26 kts 168°
2026-05-07 14:41 46.98024 15.44262 1093 ft 28 kts 169°
2026-05-07 14:41 46.97858 15.44286 1092 ft 18 kts 185°
2026-05-07 14:41 46.97840 15.44309 1090 ft 3 kts 38°
2026-05-07 14:42 46.97919 15.44292 1092 ft 21 kts 349°
2026-05-07 14:42 46.98058 15.44253 1094 ft 19 kts 349°
2026-05-07 14:42 46.98178 15.44221 1095 ft 16 kts 349°
2026-05-07 14:42 46.98279 15.44193 1098 ft 13 kts 349°
2026-05-07 14:43 46.98359 15.44170 1100 ft 10 kts 349°
2026-05-07 14:43 46.98423 15.44153 1100 ft 9 kts 349°
2026-05-07 14:43 46.98489 15.44134 1100 ft 13 kts 349°
2026-05-07 14:43 46.98635 15.44095 1103 ft 29 kts 349°
2026-05-07 14:44 46.98813 15.44046 1104 ft 26 kts 349°
2026-05-07 14:44 46.98987 15.43999 1102 ft 25 kts 349°
2026-05-07 14:44 46.99153 15.43952 1108 ft 23 kts 349°
2026-05-07 14:44 46.99266 15.43982 1111 ft 16 kts 45°
2026-05-07 14:45 46.99347 15.44109 1111 ft 18 kts 46°
2026-05-07 14:45 46.99422 15.44224 1109 ft 9 kts 46°
2026-05-07 14:45 46.99456 15.44261 1107 ft 5 kts 17°
2026-05-07 14:45 46.99481 15.44262 1110 ft 3 kts 354°
2026-05-07 14:46 46.99492 15.44260 1110 ft 1 kts 353°
2026-05-07 14:46 46.99523 15.44252 1107 ft 9 kts 350°
2026-05-07 14:46 46.99573 15.44237 1112 ft 3 kts 360°
2026-05-07 14:46 46.99574 15.44252 1111 ft 2 kts 91°
2026-05-07 14:47 46.99554 15.44297 1110 ft 9 kts 126°
2026-05-07 14:47 46.99534 15.44335 1107 ft 2 kts 126°
2026-05-07 14:47 46.99532 15.44339 1108 ft 0 kts 126°